• în Republica Moldova
  • Lista ţărilor
  • Pe 7 zile
  • Temperatura apei
  • Hartă satelitară
  • Meteo pe hartă
  • Widget-uri
  • user-avatar
    Intrare

    Meteo pe oră la Graz

    Astăzi, 16 August, Joi

    Timp Temperatura Precipitaţii Vânt Presiune Umiditate
    00:00 +18°C° 0 mm 1 m/s 726 mmHg 84%
    01:00 +17°C° 0 mm 2 m/s 726 mmHg 83%
    02:00 +16°C° 0 mm 1 m/s 726 mmHg 84%
    03:00 +16°C° 0 mm 1 m/s 726 mmHg 85%
    04:00 +16°C° 0 mm 1 m/s 726 mmHg 86%
    05:00 +18°C° 0 mm 1 m/s 726 mmHg 82%
    06:00 +19°C° 0 mm 1 m/s 726 mmHg 79%
    07:00 +21°C° 0 mm 1 m/s 726 mmHg 73%
    08:00 +23°C° 0 mm 1 m/s 726 mmHg 66%
    09:00 +25°C° 0 mm 1 m/s 726 mmHg 59%
    10:00 +26°C° 0 mm 1 m/s 727 mmHg 51%
    11:00 +27°C° 0,1 mm 1 m/s 726 mmHg 50%
    12:00 +27°C° 0,1 mm 1 m/s 726 mmHg 48%
    13:00 +28°C° 0,1 mm 1 m/s 726 mmHg 47%
    14:00 +27°C° 0,1 mm 1 m/s 725 mmHg 48%
    15:00 +27°C° 0,1 mm 1 m/s 725 mmHg 48%
    16:00 +27°C° 0,1 mm 1 m/s 725 mmHg 49%
    17:00 +25°C° 0 mm 1 m/s 724 mmHg 56%
    18:00 +23°C° 0 mm 1 m/s 724 mmHg 64%
    19:00 +19°C° 0 mm 0 m/s 724 mmHg 71%
    20:00 +21°C° 0 mm 1 m/s 724 mmHg 73%
    21:00 +20°C° 0 mm 1 m/s 724 mmHg 75%
    22:00 +19°C° 0 mm 1 m/s 724 mmHg 77%
    23:00 +18°C° 0 mm 1 m/s 724 mmHg 78%

    Mâine, 17 August, Vineri

    Timp Temperatura Precipitaţii Vânt Presiune Umiditate
    00:00 +18°C° 0 mm 1 m/s 724 mmHg 79%
    01:00 +18°C° 0 mm 1 m/s 724 mmHg 80%
    02:00 +16°C° 0 mm 1 m/s 724 mmHg 80%
    03:00 +16°C° 0 mm 1 m/s 724 mmHg 81%
    04:00 +16°C° 0 mm 1 m/s 724 mmHg 81%
    05:00 +18°C° 0 mm 1 m/s 724 mmHg 78%
    06:00 +20°C° 0 mm 1 m/s 724 mmHg 75%
    07:00 +19°C° 0 mm 0 m/s 724 mmHg 71%
    08:00 +23°C° 0 mm 1 m/s 724 mmHg 63%
    09:00 +26°C° 0 mm 1 m/s 725 mmHg 55%
    10:00 +28°C° 0 mm 1 m/s 725 mmHg 47%
    11:00 +29°C° 0 mm 1 m/s 725 mmHg 45%
    12:00 +30°C° 0 mm 1 m/s 724 mmHg 43%
    13:00 +30°C° 0 mm 2 m/s 724 mmHg 41%
    14:00 +30°C° 0 mm 1 m/s 724 mmHg 43%
    15:00 +29°C° 0 mm 1 m/s 724 mmHg 46%
    16:00 +29°C° 0 mm 1 m/s 723 mmHg 48%
    17:00 +27°C° 0,1 mm 1 m/s 723 mmHg 56%
    18:00 +23°C° 0,1 mm 0 m/s 723 mmHg 64%
    19:00 +21°C° 0,1 mm 0 m/s 723 mmHg 72%
    20:00 +20°C° 0,1 mm 0 m/s 724 mmHg 74%
    21:00 +21°C° 0,1 mm 1 m/s 724 mmHg 76%
    22:00 +21°C° 0,1 mm 1 m/s 724 mmHg 78%
    23:00 +20°C° 0 mm 1 m/s 724 mmHg 79%

    Poimâine, 18 August, Sâmbătă

    Timp Temperatura Precipitaţii Vânt Presiune Umiditate
    00:00 +20°C° 0 mm 1 m/s 724 mmHg 80%
    01:00 +20°C° 0 mm 1 m/s 725 mmHg 81%
    02:00 +19°C° 0 mm 1 m/s 725 mmHg 81%
    03:00 +19°C° 0 mm 1 m/s 725 mmHg 82%
    04:00 +19°C° 0 mm 1 m/s 725 mmHg 82%
    05:00 +20°C° 0 mm 1 m/s 725 mmHg 80%
    06:00 +21°C° 0 mm 1 m/s 726 mmHg 78%
    07:00 +22°C° 0 mm 1 m/s 726 mmHg 76%
    08:00 +24°C° 0,4 mm 1 m/s 726 mmHg 70%
    09:00 +26°C° 0,4 mm 1 m/s 726 mmHg 65%
    10:00 +28°C° 0,4 mm 1 m/s 726 mmHg 59%
    11:00 +28°C° 0,7 mm 1 m/s 726 mmHg 58%
    12:00 +29°C° 0,7 mm 1 m/s 726 mmHg 58%
    13:00 +29°C° 0,7 mm 1 m/s 726 mmHg 57%
    14:00 +29°C° 0,8 mm 1 m/s 726 mmHg 59%
    15:00 +29°C° 0,8 mm 1 m/s 726 mmHg 60%
    16:00 +28°C° 0,8 mm 1 m/s 726 mmHg 62%
    17:00 +27°C° 0,4 mm 1 m/s 726 mmHg 67%
    18:00 +25°C° 0,4 mm 1 m/s 726 mmHg 72%
    19:00 +23°C° 0,4 mm 1 m/s 726 mmHg 78%
    20:00 +22°C° 0,4 mm 1 m/s 726 mmHg 80%
    21:00 +22°C° 0,4 mm 1 m/s 727 mmHg 83%
    22:00 +21°C° 0,4 mm 1 m/s 727 mmHg 85%
    23:00 +21°C° 0,2 mm 1 m/s 727 mmHg 86%

    19 August, Duminică

    Timp Temperatura Precipitaţii Vânt Presiune Umiditate
    00:00 +20°C° 0,2 mm 1 m/s 727 mmHg 86%
    01:00 +20°C° 0,2 mm 1 m/s 727 mmHg 87%
    02:00 +20°C° 0,1 mm 1 m/s 727 mmHg 87%
    03:00 +19°C° 0,1 mm 1 m/s 727 mmHg 88%
    04:00 +19°C° 0,1 mm 1 m/s 727 mmHg 88%
    05:00 +20°C° 0,1 mm 1 m/s 727 mmHg 87%
    06:00 +21°C° 0,1 mm 1 m/s 728 mmHg 85%
    07:00 +22°C° 0,1 mm 1 m/s 728 mmHg 83%
    08:00 +24°C° 0,4 mm 1 m/s 728 mmHg 77%
    09:00 +25°C° 0,4 mm 1 m/s 728 mmHg 70%
    10:00 +27°C° 0,4 mm 1 m/s 728 mmHg 64%
    11:00 +28°C° 0,8 mm 1 m/s 728 mmHg 63%
    12:00 +28°C° 0,8 mm 1 m/s 728 mmHg 63%
    13:00 +29°C° 0,8 mm 1 m/s 727 mmHg 62%
    14:00 +29°C° 0,9 mm 1 m/s 727 mmHg 62%
    15:00 +28°C° 0,9 mm 1 m/s 727 mmHg 62%
    16:00 +28°C° 0,9 mm 1 m/s 727 mmHg 62%
    17:00 +27°C° 0,5 mm 1 m/s 727 mmHg 68%
    18:00 +25°C° 0,5 mm 1 m/s 727 mmHg 74%
    19:00 +23°C° 0,5 mm 1 m/s 727 mmHg 79%
    20:00 +22°C° 0,2 mm 1 m/s 727 mmHg 81%
    21:00 +21°C° 0,2 mm 1 m/s 727 mmHg 83%
    22:00 +21°C° 0,2 mm 1 m/s 727 mmHg 85%
    23:00 +20°C° 0 mm 1 m/s 727 mmHg 86%

    20 August, Luni

    Timp Temperatura Precipitaţii Vânt Presiune Umiditate
    00:00 +20°C° 0 mm 1 m/s 727 mmHg 87%
    01:00 +20°C° 0 mm 1 m/s 727 mmHg 87%
    02:00 +19°C° 0 mm 1 m/s 727 mmHg 88%
    03:00 +19°C° 0 mm 1 m/s 727 mmHg 88%
    04:00 +19°C° 0 mm 1 m/s 727 mmHg 89%
    05:00 +20°C° 0 mm 1 m/s 727 mmHg 87%
    06:00 +21°C° 0 mm 1 m/s 727 mmHg 84%
    07:00 +22°C° 0 mm 1 m/s 728 mmHg 82%
    08:00 +24°C° 0,1 mm 1 m/s 728 mmHg 74%
    09:00 +26°C° 0,1 mm 1 m/s 728 mmHg 66%
    10:00 +28°C° 0,1 mm 1 m/s 728 mmHg 58%
    11:00 +29°C° 0,4 mm 1 m/s 728 mmHg 57%
    12:00 +30°C° 0,4 mm 1 m/s 727 mmHg 56%
    13:00 +30°C° 0,4 mm 1 m/s 727 mmHg 54%
    14:00 +30°C° 0,4 mm 1 m/s 727 mmHg 55%
    15:00 +28°C° 0,4 mm 0 m/s 727 mmHg 55%
    16:00 +28°C° 0,4 mm 0 m/s 726 mmHg 56%
    17:00 +26°C° 0,3 mm 0 m/s 726 mmHg 62%
    18:00 +24°C° 0,3 mm 0 m/s 726 mmHg 68%
    19:00 +22°C° 0,3 mm 0 m/s 726 mmHg 74%
    20:00 +23°C° 0,1 mm 1 m/s 726 mmHg 76%
    21:00 +22°C° 0,1 mm 1 m/s 727 mmHg 78%
    22:00 +21°C° 0,1 mm 1 m/s 727 mmHg 81%
    23:00 +21°C° 0 mm 1 m/s 727 mmHg 82%

    21 August, Marţi

    Timp Temperatura Precipitaţii Vânt Presiune Umiditate
    00:00 +21°C° 0 mm 1 m/s 727 mmHg 84%
    01:00 +20°C° 0 mm 1 m/s 727 mmHg 85%
    02:00 +20°C° 0 mm 1 m/s 727 mmHg 86%
    03:00 +20°C° 0 mm 1 m/s 727 mmHg 87%
    04:00 +19°C° 0 mm 1 m/s 727 mmHg 88%
    05:00 +20°C° 0 mm 1 m/s 727 mmHg 85%
    06:00 +21°C° 0 mm 1 m/s 727 mmHg 82%
    07:00 +22°C° 0 mm 1 m/s 727 mmHg 80%
    08:00 +25°C° 0 mm 1 m/s 727 mmHg 70%
    09:00 +26°C° 0 mm 0 m/s 727 mmHg 60%
    10:00 +28°C° 0 mm 0 m/s 728 mmHg 51%
    11:00 +29°C° 0,1 mm 0 m/s 727 mmHg 49%
    12:00 +31°C° 0,1 mm 1 m/s 727 mmHg 47%
    13:00 +32°C° 0,1 mm 1 m/s 726 mmHg 45%
    14:00 +31°C° 0,2 mm 1 m/s 726 mmHg 48%
    15:00 +30°C° 0,2 mm 1 m/s 726 mmHg 51%
    16:00 +30°C° 0,2 mm 1 m/s 725 mmHg 55%
    17:00 +28°C° 0,2 mm 1 m/s 725 mmHg 60%
    18:00 +24°C° 0,2 mm 0 m/s 725 mmHg 65%
    19:00 +22°C° 0,2 mm 0 m/s 725 mmHg 71%
    20:00 +21°C° 0,1 mm 0 m/s 725 mmHg 73%
    21:00 +22°C° 0,1 mm 1 m/s 725 mmHg 75%
    22:00 +22°C° 0,1 mm 1 m/s 725 mmHg 77%
    23:00 +21°C° 0,1 mm 1 m/s 725 mmHg 78%
    Arată mai mult